• Join FlightAware (Why Join?)
  • Login
  • US Flag 
03:49PM EST


 

Airport Tracker/Info


-or-


 

Live Flight TrackerFlight Track Log ✈ N946RM ✈ 17-Mar-2014 ✈ KBHM - KECP

Flight Track Log - Related Links

Times and Time Zones

All times are in EDT time to prevent confusion due to time zone crossing. See the N946RM flight status page for this flight to view local times or setup timezone preferences in your user account.

Time Position Orientation Groundspeed Altitude Reporting Facility
EDT Latitude Longitude Course Direction KTS MPH feet Rate Location/Type
08:17AM 33.5767 -86.7517 65° Northeast 159 183 1,900  Level Atlanta Center
08:18AM 33.5942 -86.7072 65° Northeast 207 238 5,200 3,626 Climbing Atlanta Center
08:19AM 33.5972 -86.6600 86° East 237 273 7,400 3,344 Climbing Atlanta Center
08:19AM 33.5853 -86.6397 125° Southeast 239 275 8,600 2,700 Climbing Atlanta Center
08:20AM 33.5522 -86.6161 149° Southeast 213 245 10,100 2,375 Climbing Atlanta Center
08:21AM 33.4756 -86.5964 168° South 254 292 12,400 2,500 Climbing Atlanta Center
08:22AM 33.4069 -86.5744 165° South 264 304 15,100 2,500 Climbing Atlanta Center
08:23AM 33.3344 -86.5550 167° South 264 304 17,400 2,300 Climbing Atlanta Center
08:24AM 33.2597 -86.5331 166° South 269 310 19,700 2,250 Climbing Atlanta Center
08:25AM 33.1828 -86.5158 169° South 275 316 21,900 2,050 Climbing Atlanta Center
08:26AM 33.1122 -86.4989 169° South 274 315 23,800 1,800 Climbing Atlanta Center
08:27AM 33.0417 -86.4772 166° South 269 310 25,500 1,600 Climbing Atlanta Center
08:28AM 32.9689 -86.4603 169° South 269 310 27,000 750 Climbing Atlanta Center
08:29AM 32.8922 -86.4383 166° South 274 315 27,000  Level Atlanta Center
08:30AM 32.8028 -86.4186 169° South 303 349 27,000  Level Atlanta Center
08:31AM 32.7136 -86.3939 167° South 318 366 27,000  Level Atlanta Center
08:32AM 32.6242 -86.3694 167° South 329 379 27,000  Level Atlanta Center
08:33AM 32.5392 -86.3475 168° South 334 384 27,000  Level Atlanta Center
08:34AM 32.4456 -86.3253 169° South 334 384 27,000  Level Atlanta Center
08:35AM 32.3625 -86.3011 166° South 334 384 27,000  Level Atlanta Center
08:36AM 32.2753 -86.2792 168° South 333 383 27,000  Level Atlanta Center
08:37AM 32.1919 -86.2625 170° South 323 372 27,000  Level Atlanta Center
08:38AM 32.1047 -86.2406 168° South 335 386 27,000 -750 Level Atlanta Center
08:39AM 32.0175 -86.2164 167° South 335 386 25,500 -1,098 Descending Atlanta Center
08:40AM 31.8878 -86.1833 168° South 299 344 24,000 -549 Descending Jacksonville Center
08:41AM 31.8194 -86.1664 168° South 272 313 24,000  Level Jacksonville Center
08:42AM 31.7447 -86.1489 169° South 265 305 24,000  Level Jacksonville Center
08:43AM 31.6619 -86.1267 167° South 287 330 24,000  Level Jacksonville Center
08:44AM 31.5767 -86.1042 167° South 302 348 24,000 -1,100 Level Jacksonville Center
08:45AM 31.4958 -86.0819 167° South 307 353 21,800 -2,250 Descending Jacksonville Center
08:46AM 31.4150 -86.0619 168° South 307 353 19,500 -2,350 Descending Jacksonville Center
08:47AM 31.3342 -86.0422 168° South 307 353 17,100 -2,350 Descending Jacksonville Center
08:48AM 31.2511 -86.0225 169° South 307 353 14,800 -2,385 Descending Jacksonville Center
08:49AM 31.2178 -86.0117 164° South 306 352 14,000 -1,900 Descending Jacksonville Center
08:49AM 31.1681 -86.0003 169° South 307 353 12,900 -2,000 Descending Jacksonville Center
08:50AM 31.1494 -85.9947 166° South 312 359 12,400 -2,200 Descending Jacksonville Center
08:50AM 31.0831 -85.9806 170° South 307 353 10,700 -2,164 Descending Jacksonville Center
08:51AM 31.0686 -85.9753 163° South 306 352 10,200 -2,500 Descending Jacksonville Center
08:51AM 30.9936 -85.9606 170° South 312 359 8,200 -1,168 Descending Jacksonville Center
08:52AM 30.9192 -85.9389 166° South 302 348 8,000 -900 Descending Jacksonville Center
08:53AM 30.8442 -85.9219 169° South 285 328 6,400 -1,250 Descending Jacksonville Center
08:54AM 30.7714 -85.9147 175° South 275 316 5,500 -900 Descending Jacksonville Center
08:55AM 30.6964 -85.9075 175° South 275 316 4,600 -950 Descending Jacksonville Center
08:56AM 30.6256 -85.9053 178° South 275 316 3,600 -800 Descending Jacksonville Center
08:57AM 30.5611 -85.8864 166° South 263 303 3,000 -300 Descending Jacksonville Center
08:58AM 30.5097 -85.8606 157° South 229 264 3,000 -400 Level Jacksonville Center
08:59AM 30.4661 -85.8425 160° South 198 228 2,200 -750 Descending Jacksonville Center
09:00AM 30.4331 -85.8294 161° South 160 184 1,500 -650 Descending Jacksonville Center
09:01AM 30.4022 -85.8164 160° South 127 146 900 -600 Descending Jacksonville Center
09:02AM 30.3731 -85.8033 159° South 122 140 300 -300 Descending Jacksonville Center
09:03AM 30.3442 -85.7906 159° South 122 140 300  Level Jacksonville Center
09:05AM 30.3500 -85.7833 North  Level FlightAware Approximate